Newark, OH

7:37 PM EDT on August 30, 2016 (GMT -0400)
Newark Heath

Weather History for KVTA - May, 2014

Change the Weather History Date:

Thursday, May 15, 2014

  Actual Average Record
Temperature  
Mean Temperature 57 °F -  
Max Temperature 66 °F 73 °F 91 °F (1962)
Min Temperature 48 °F 49 °F 33 °F (1936)
Degree Days  
Heating Degree Days 8    
Growing Degree Days 7 (Base 50)    
Moisture  
Dew Point 56 °F    
Average Humidity 86    
Maximum Humidity 100    
Minimum Humidity 69    
Precipitation  
Precipitation 0.66 in - - ()
Sea Level Pressure  
Sea Level Pressure 29.89 in    
Wind  
Wind Speed 7 mph (WSW)    
Max Wind Speed 21 mph    
Max Gust Speed 31 mph    
Visibility 7 miles    
Events Rain , Thunderstorm    
Averages and records for this station are not official NWS values.
T = Trace of Precipitation, MM = Missing Value Source: NWS Daily Summary

Daily Weather History Graph

Daily Weather History Graph

Search for Another Location

Airport or City:

Trip Planner

Search our weather history database for the weather conditions in past years. The results will help you decide how hot, cold, wet, or windy it might be!

Date:

Astronomy

May. 15, 2014 Rise Set
Actual Time 6:14 AM EDT 8:38 PM EDT
Civil Twilight 5:43 AM EDT 9:09 PM EDT
Nautical Twilight 5:06 AM EDT 9:47 PM EDT
Astronomical Twilight 4:24 AM EDT 10:29 PM EDT
Moon 9:45 PM EDT (5/15) 7:00 AM EDT (5/15)
Length of Visible Light 15h 25m
Length of Day
14h 23m
Full, 99% of the Moon is Illuminated
May 15
Full
May 21
Last Quarter
May 28
New
Jun 5
First Quarter
Jun 13
Full

Hourly Weather History & Observations

Time (EDT) Temp. Dew Point Humidity Pressure Visibility Wind Dir Wind Speed Gust Speed Precip Events Conditions
12:02 AM 64.9 °F 64.0 °F 97% 29.92 in 0.8 mi East 3.5 mph - 0.12 in Rain , Thunderstorm Heavy Thunderstorms and Rain
12:09 AM 64.9 °F 64.9 °F 100% 29.90 in 2.0 mi Calm Calm - 0.13 in Rain , Thunderstorm Light Thunderstorms and Rain
12:17 AM 64.9 °F 64.0 °F 97% 29.90 in 3.0 mi Calm Calm - 0.15 in Rain , Thunderstorm Light Thunderstorms and Rain
12:25 AM 64.9 °F 63.0 °F 93% 29.90 in 4.0 mi West 9.2 mph - 0.15 in Rain , Thunderstorm Light Rain
12:37 AM 64.9 °F 64.0 °F 97% 29.90 in 2.5 mi WSW 4.6 mph - 0.22 in Rain , Thunderstorm Heavy Thunderstorms and Rain
12:45 AM 64.9 °F 64.9 °F 100% 29.89 in 1.5 mi Calm Calm - 0.27 in Rain , Thunderstorm Thunderstorms and Rain
12:49 AM 64.4 °F 64.4 °F 100% 29.89 in 3.0 mi Calm Calm - 0.27 in Rain , Thunderstorm Light Thunderstorms and Rain
12:54 AM 64.9 °F 64.9 °F 100% 29.88 in 6.0 mi Calm Calm - 0.27 in Rain , Thunderstorm Light Thunderstorms and Rain
1:07 AM 64.9 °F 64.0 °F 97% 29.89 in 4.0 mi Calm Calm - 0.00 in Thunderstorm Scattered Clouds
1:14 AM 64.9 °F 64.0 °F 97% 29.90 in 4.0 mi Calm Calm - 0.00 in   Partly Cloudy
1:54 AM 64.9 °F 64.0 °F 97% 29.86 in 3.0 mi East 3.5 mph - 0.00 in   Mostly Cloudy
2:22 AM 64.9 °F 64.0 °F 97% 29.86 in 2.5 mi ENE 4.6 mph - N/A   Mostly Cloudy
2:30 AM 64.9 °F 64.0 °F 97% 29.86 in 3.0 mi Calm Calm - N/A   Mostly Cloudy
2:54 AM 64.9 °F 64.0 °F 97% 29.82 in 5.0 mi ENE 4.6 mph - 0.00 in   Overcast
3:54 AM 64.9 °F 64.9 °F 100% 29.81 in 5.0 mi Calm Calm - N/A   Overcast
4:54 AM 64.9 °F 64.0 °F 97% 29.82 in 1.8 mi South 3.5 mph - 0.10 in Rain Heavy Rain
5:00 AM 64.9 °F 64.0 °F 97% 29.83 in 3.0 mi SSE 5.8 mph - 0.02 in Rain Rain
5:54 AM 64.9 °F 63.0 °F 93% 29.79 in 6.0 mi ESE 6.9 mph - 0.11 in Rain Light Rain
6:54 AM 64.9 °F 63.0 °F 93% 29.78 in 9.0 mi SSE 15.0 mph 21.9 mph 0.03 in Rain Light Rain
7:54 AM 66.0 °F 62.1 °F 87% 29.78 in 10.0 mi SSE 12.7 mph - 0.00 in   Mostly Cloudy
8:54 AM 66.0 °F 62.1 °F 87% 29.78 in 10.0 mi SSE 12.7 mph 19.6 mph N/A   Overcast
9:54 AM 66.0 °F 62.1 °F 87% 29.76 in 10.0 mi SSE 11.5 mph - 0.01 in   Overcast
10:21 AM 62.1 °F 59.0 °F 90% 29.80 in 2.0 mi WSW 20.7 mph 31.1 mph 0.03 in Rain Light Rain
10:23 AM 62.1 °F 57.9 °F 86% 29.80 in 3.0 mi WSW 18.4 mph 31.1 mph 0.03 in Rain Light Rain
10:32 AM 62.1 °F 57.9 °F 86% 29.81 in 2.5 mi WSW 18.4 mph - 0.05 in Rain Rain
10:39 AM 61.0 °F 57.0 °F 87% 29.82 in 3.0 mi WSW 19.6 mph 29.9 mph 0.07 in Rain Rain
10:50 AM 60.8 °F 57.2 °F 88% 29.82 in 4.0 mi WSW 13.8 mph - 0.09 in Rain Rain
10:54 AM 60.1 °F 57.0 °F 90% 29.82 in 4.0 mi WSW 13.8 mph - 0.09 in Rain Rain
11:54 AM 59.0 °F 55.0 °F 87% 29.85 in 8.0 mi WSW 15.0 mph 26.5 mph 0.04 in Rain Light Rain
12:24 PM 59.0 °F 55.0 °F 87% 29.87 in 10.0 mi SW 12.7 mph 19.6 mph 0.00 in   Overcast
12:35 PM 59.0 °F 54.0 °F 83% 29.87 in 10.0 mi WSW 15.0 mph - 0.00 in Rain Light Rain
12:42 PM 59.0 °F 54.0 °F 83% 29.87 in 10.0 mi WSW 12.7 mph - 0.00 in Rain Light Rain
12:54 PM 57.9 °F 53.1 °F 84% 29.87 in 10.0 mi SW 19.6 mph 25.3 mph 0.00 in   Overcast
1:54 PM 55.0 °F 51.1 °F 86% 29.89 in 10.0 mi SW 16.1 mph - N/A   Overcast
3:54 PM 55.9 °F 46.9 °F 72% 29.91 in 10.0 mi SW 16.1 mph 21.9 mph 0.01 in Rain Light Rain
4:19 PM 55.9 °F 46.9 °F 72% 29.93 in 10.0 mi WSW 17.3 mph 26.5 mph 0.00 in   Overcast
4:54 PM 55.9 °F 46.0 °F 69% 29.92 in 10.0 mi WSW 15.0 mph - 0.00 in   Overcast
5:54 PM 55.9 °F 46.0 °F 69% 29.94 in 10.0 mi West 15.0 mph 24.2 mph 0.00 in   Overcast
6:54 PM 54.0 °F 45.0 °F 72% 29.96 in 10.0 mi WSW 9.2 mph - N/A   Overcast
7:54 PM 54.0 °F 44.1 °F 69% 29.98 in 10.0 mi SW 10.4 mph - N/A   Overcast
8:54 PM 53.1 °F 44.1 °F 71% 29.99 in 10.0 mi WSW 9.2 mph - N/A   Overcast
9:17 PM 52.0 °F 43.0 °F 71% 30.00 in 10.0 mi WNW 8.1 mph - N/A   Overcast
9:30 PM 51.1 °F 42.1 °F 71% 30.01 in 10.0 mi WNW 11.5 mph - N/A   Overcast
9:54 PM 50.0 °F 41.0 °F 71% 30.02 in 10.0 mi WNW 10.4 mph - N/A   Overcast
10:27 PM 48.9 °F 39.9 °F 71% 30.02 in 10.0 mi WNW 11.5 mph - N/A   Overcast
10:54 PM 48.0 °F 39.0 °F 71% 30.03 in 10.0 mi West 8.1 mph - N/A   Scattered Clouds
11:11 PM 48.0 °F 39.9 °F 74% 30.03 in 10.0 mi WNW 10.4 mph - N/A   Mostly Cloudy
11:54 PM 48.0 °F 39.0 °F 71% 30.04 in 10.0 mi NW 11.5 mph - N/A   Overcast